Location: Dover
(39.1580°N, 75.5250°W)
Time: 17:37:04
(UTC-04:00)

Daily predictions for brighter satellites

Satellite Brightness Start Highest point End
(mag) Time Altitude Azimuth Time Altitude Azimuth Time Altitude Azimuth
Cosmos 676 Rocket 4.5 20:03:46 10° NNW 20:09:05 70° WSW 20:14:22 10° S
Cosmos 1300 Rocket 4.3 20:08:13 10° SSE 20:11:58 30° E 20:15:45 10° NNE
Lacrosse 5 rocket 3.0 20:09:54 10° WNW 20:13:05 28° SW 20:16:24 10° S
Cosmos 1536 3.7 20:10:42 10° SSE 20:14:15 30° E 20:17:49 10° NNE
Meteor 2-4 Rocket 4.3 20:09:36 10° N 20:14:52 40° ENE 20:20:14 10° SE
Okean 1 Rocket 4.3 20:11:41 10° SE 20:15:02 22° E 20:18:26 10° NE
Spot 2 Rocket 3.9 20:11:48 10° SE 20:16:38 45° ENE 20:21:29 10° N
ATLAS 3B R/B 3.7 20:10:58 10° NNW 20:16:46 29° NE 20:22:21 10° ESE
CZ-2D R/B 3.4 20:13:57 10° SSE 20:17:43 55° ENE 20:21:29 10° N
USA 186 2.6 20:15:45 10° SE 20:18:51 35° ENE 20:21:57 10° N
Cosmos 1939 Rocket 4.2 20:16:23 10° ESE 20:19:22 21° ENE 20:22:20 10° NNE
Cosmos 1633 3.8 20:17:51 10° SSW 20:21:21 47° W 20:24:53 10° N
H-2A R/B 3.4 20:20:11 10° S 20:23:55 59° W 20:27:38 10° NNW
Tiangong 1 0.7 20:21:47 10° WNW 20:24:36 87° S 20:27:02 13° ESE
ALOS 4.3 20:26:22 10° SSW 20:30:28 30° W 20:34:36 10° NW
USA 267 3.3 20:24:19 10° SE 20:30:54 88° SW 20:37:30 10° NW
Cosmos 1553 Rocket 3.9 20:27:00 10° N 20:33:10 85° E 20:39:13 10° S
NOSS 2-3 (D) 4.0 20:28:34 10° SW 20:33:11 81° NW 20:38:33 10° NNE
S3M 4.0 20:26:56 10° N 20:33:15 79° E 20:39:37 10° S
Cosmos 2266 Rocket 4.1 20:28:12 10° SSE 20:33:58 49° E 20:39:46 10° NNE
Meteor 1-13 Rocket 4.4 20:28:10 10° N 20:34:09 84° E 20:40:04 10° S
YAOGAN 6 4.0 20:35:42 14° ESE 20:37:36 21° ENE 20:40:20 10° NNE
Resurs 01 Rocket 1.7 20:37:11 10° SSE 20:41:38 88° WSW 20:46:07 10° NNW
Cosmos 2151 Rocket 4.1 20:38:35 10° SSW 20:42:54 62° W 20:47:17 10° N
Envisat 3.0 20:40:59 10° SSE 20:46:00 68° ENE 20:51:04 10° N
Cosmos 2263 Rocket 2.2 20:40:55 10° NNW 20:46:40 80° ENE 20:52:19 10° SSE
Abrixas 2.8 20:46:06 10° SSW 20:48:28 33° SE 20:49:11 27° ESE
Cosmos 1741 Rocket 4.1 20:44:11 10° NNW 20:49:27 83° WSW 20:54:43 10° SSE
Cosmos 2315 Rocket 4.5 20:44:14 10° N 20:50:08 41° ENE 20:55:06 14° SE
Cosmos 1536 Rocket 3.9 20:47:41 10° NNW 20:52:00 68° W 20:56:18 10° S
Cosmos 1844 Rocket 4.2 20:48:10 10° N 20:52:24 21° NE 20:55:09 15° E
Cosmos 2322 Rocket 3.1 20:47:12 10° SW 20:52:44 52° WNW 20:58:18 10° NNE
Lacrosse 5 2.4 20:49:01 10° SW 20:54:03 63° NW 20:59:05 10° NE
Atlas Centaur 2 3.9 20:49:40 10° W 20:57:08 35° SSW 21:02:22 16° SE
Cosmos 1932 4.5 20:52:42 10° NNW 20:59:14 79° ENE 21:04:10 18° SE
ATLAS 2AS CENTAUR R/B 3.2 20:51:47 10° SW 20:59:27 83° WNW 21:07:38 10° NNE
Cosmos 2237 4.4 20:59:02 10° S 21:04:26 48° ESE 21:09:53 10° NE
Helios 1B rocket 2.8 21:02:11 10° NNE 21:06:03 39° E 21:08:10 22° SSE
SL-16 R/B 3.6 21:01:09 10° SW 21:06:28 41° WNW 21:11:48 10° N
Cosmos 1302 Rocket 4.5 21:01:55 10° SSE 21:06:44 37° ESE 21:11:34 10° NE
SJ-11-01 4.2 21:03:16 15° SSE 21:07:03 74° ENE 21:11:43 10° N
H-2A R/B 3.7 21:06:16 14° ENE 21:07:12 15° ENE 21:09:54 10° NNE
Cosmos 1515 4.4 21:03:42 10° NNE 21:07:12 34° ENE 21:08:01 30° ESE
Cosmos 2219 Rocket 3.4 21:08:26 20° E 21:08:26 20° E 21:11:56 10° NE
NOSS 3-4 (A) 4.4 21:09:42 23° SE 21:10:50 25° ESE 21:15:49 10° ENE
NOSS 3-4 (C) 4.4 21:10:16 24° ESE 21:10:56 24° ESE 21:15:54 10° ENE
FALCON 9 R/B 4.3 21:09:46 10° SSE 21:19:39 15° E 21:24:12 10° E
Cosmos 1110 Rocket 4.0 21:10:34 10° SSW 21:15:44 86° WNW 21:20:57 10° NNE
Cosmos 2322 3.6 21:14:04 10° SSW 21:19:43 85° ESE 21:25:25 10° NNE
Cosmos 1500 3.5 21:19:37 41° ESE 21:20:10 44° E 21:23:53 10° NNE
Delta 2 Rocket 3.5 21:17:37 10° WSW 21:21:29 53° S 21:22:33 41° SE
SeaSat 1 2.5 21:17:06 10° NNE 21:22:04 84° WNW 21:26:59 10° SSW
SAR-Lupe-4 4.4 21:23:05 34° ENE 21:23:05 34° ENE 21:26:18 10° N
Cosmos 2360 Rocket 2.4 21:18:20 10° SSW 21:23:57 73° WNW 21:29:36 10° NNE
Meteor 1-23 Rocket 4.5 21:20:54 10° NNW 21:26:26 68° W 21:31:39 12° S
Cosmos 405 3.6 21:27:10 39° ENE 21:27:10 39° ENE 21:29:59 10° NNE
Abrixas rocket 3.9 21:24:01 10° NW 21:26:48 25° NNE 21:27:31 23° NE
Cosmos 1331 Rocket 4.1 21:21:39 10° SSW 21:26:50 78° WNW 21:32:05 10° NNE
Okean 2 3.2 21:23:53 10° N 21:28:00 79° E 21:29:21 41° SSE
OPS 6432 4.3 21:24:18 10° SW 21:28:05 84° WNW 21:31:13 10° NNE
Cosmos 482 Debris 3.8 21:25:56 10° SW 21:30:28 84° NW 21:31:10 51° NE
Cosmos 1455 Rocket 4.0 21:32:44 32° ENE 21:32:44 32° ENE 21:36:05 10° NNE
COSMOS 2428 2.7 21:27:12 10° S 21:32:48 59° ESE 21:38:25 10° NNE
Cosmos 1975 3.2 21:33:35 44° ENE 21:33:35 44° ENE 21:37:00 10° NNE
Cosmos 1844 4.5 21:32:25 10° N 21:37:37 35° ENE 21:38:50 32° E
Cosmos 1241 Rocket 4.4 21:31:29 10° SSW 21:38:00 73° ESE 21:44:29 10° NNE
CZ-4B DEB 3.6 21:42:42 41° NNW 21:42:42 41° NNW 21:44:42 10° NNW
Meteor 1-12 Rocket 4.2 21:42:25 40° SSE 21:44:12 58° E 21:49:44 10° NNE
MetOp-A 4.1 21:42:58 45° SE 21:44:25 63° ENE 21:49:43 10° N
NOAA 11 4.1 21:42:56 39° SSE 21:45:04 81° ENE 21:50:35 10° N
Cosmos 2333 Rocket 3.1 21:47:12 30° ENE 21:47:12 30° ENE 21:50:47 10° NE
Cosmos 1025 Rocket 3.8 21:44:34 10° NNW 21:48:42 49° W 21:50:37 28° SSW
Cosmos 2333 4.0 21:45:35 10° SSW 21:51:14 78° ESE 21:56:52 10° NNE
NOSS 3-2 (A) 4.2 21:47:29 10° NNW 21:54:55 58° NE 21:57:47 40° ESE
Cosmos 2237 Rocket 3.9 22:00:25 18° ENE 22:00:25 18° ENE 22:02:08 10° NE
Nadezhda 1 Rocket 4.3 21:51:20 10° N 21:57:24 46° ENE 21:58:08 44° E
USA 238 DEB 3.8 21:51:18 10° NW 21:58:25 81° WSW 22:01:04 43° SSE
USA 238 3.8 21:51:23 10° NW 21:58:32 82° WSW 22:01:09 43° SSE
Cosmos 1437 Rocket 4.5 22:01:26 24° NNE 22:01:26 24° NNE 22:03:10 10° NNE
Helios 1A 4.2 22:01:08 28° SW 22:02:35 37° W 22:06:34 10° NNW
ATLAS 3B R/B 2.9 22:01:19 10° NW 22:07:50 59° WSW 22:09:58 41° S
ERS-1 Rocket 3.1 22:06:57 54° SSW 22:07:57 69° WSW 22:12:59 10° NNW
Cosmos 1238 Rocket 4.0 22:01:23 10° N 22:08:04 80° W 22:10:05 45° S
Cosmos 1818 3.8 22:02:45 10° SW 22:08:09 69° WNW 22:13:36 10° NNE
SPOT 1/Viking Rocket 3.8 22:08:49 51° ENE 22:08:49 51° ENE 22:13:40 10° N
SL-8 R/B 3.6 22:04:35 10° WNW 22:09:13 78° WSW 22:09:13 78° WSW
ARGOS 3.0 22:12:31 71° S 22:13:08 88° WSW 22:18:32 10° NNW
SL-08 R/B 4.4 22:10:49 42° S 22:13:09 89° WNW 22:19:30 10° N
Cosmos 1503 Rocket 4.2 22:08:09 10° NNW 22:13:20 60° ENE 22:13:20 60° ENE
Cosmos 1066 Rocket 4.2 22:09:10 10° NNW 22:14:38 77° W 22:15:33 61° SSW
SL-08 RB Rocket 3.9 22:15:40 65° N 22:15:40 65° N 22:19:36 10° N
Aureole 3 Rocket 4.5 22:22:16 10° NNW 22:29:55 59° W 22:31:41 44° SW
USA 245 4.3 22:31:49 54° WNW 22:31:49 54° WNW 22:35:12 10° NNW
SPOT 5 3.2 22:31:51 62° NW 22:31:51 62° NW 22:35:49 10° NNW
COSMOS 2455 4.5 22:29:38 10° N 22:34:06 21° NE 22:34:25 21° NE
Cosmos 2292 Rocket 4.5 22:33:59 75° SSE 22:34:32 81° E 22:40:23 10° N
NOSS 3-2 (C) 3.9 22:27:49 10° NNW 22:35:27 77° NE 22:36:46 64° ESE
Cosmos 1844 Rocket 3.0 22:31:07 10° NNW 22:36:41 58° WSW 22:36:49 58° WSW
NOSS 0 Rocket 3.9 22:38:09 69° NE 22:38:09 69° NE 22:43:40 10° NNE
Cosmos 2278 Rocket 2.7 22:33:22 10° NNW 22:38:10 51° NNE 22:38:10 51° NNE
H-2A R/B 2.5 22:46:54 55° WNW 22:46:54 55° WNW 22:51:02 10° NNW
Meteor 1-21 4.4 22:41:56 10° N 22:46:52 69° NNW 22:46:52 69° NNW
Cosmos 2219 Rocket 2.9 22:50:02 43° WSW 22:51:21 52° WNW 22:56:53 10° NNE
Cosmos 1745 Rocket 4.5 22:50:54 46° WSW 22:52:08 53° W 22:58:10 10° N
CENTAUR R/B 3.6 22:47:56 10° NNW 22:55:30 47° NE 22:56:35 45° ENE
NOSS 3-4 (A) 4.0 22:56:26 17° SW 23:01:13 56° NW 23:07:35 10° NNE
NOSS 3-4 (C) 4.0 22:57:10 21° WSW 23:01:19 56° NW 23:07:41 10° NNE
Terra 3.3 23:04:46 34° N 23:04:46 34° N 23:07:27 10° NNW
SL-16 R/B 4.3 23:11:39 17° NE 23:11:39 17° NE 23:12:58 10° NE
Cosmos 2333 Rocket 3.7 23:29:06 30° WNW 23:29:56 32° WNW 23:34:57 10° N
Cosmos 2237 Rocket 3.6 23:42:11 35° NW 23:42:11 35° NW 23:46:27 10° N
Cosmos 2369 Rocket 4.5 23:40:14 10° NNE 23:42:42 15° NE 23:42:42 15° NE
